User: anonymous   Login
Location: Unspecified
(0.0000°N, 0.0000°E)
Time: 03:59:13
(UTC+00:00)
Language:

YAOGAN 11 - Orbit

View from above orbital plane
View from above orbital plane
View from above satellite
View from above satellite

Ground track
Ground track

The orbit data is extracted from the following two-line orbital elements,

1 37165U 10047A   18292.88999046  .00000134  00000-0  27043-4 0  9997
2 37165  98.2863  14.3726 0037487 176.8860 183.2580 14.76408510434934
Epoch (UTC): 19 October 2018 21:21:35
Eccentricity: 0.0037487
inclination: 98.2863°
perigee height: 614 km
apogee height: 667 km
right ascension of ascending node: 14.3726°
argument of perigee: 176.8860°
revolutions per day: 14.76408510
mean anomaly at epoch: 183.2580°
orbit number at epoch: 43493

The dashed part of the orbit path shows where the satellite is in the earth's shadow,  

DLR